SCP
2 2 2 2 2 2 3 4 3 2 2 2 2 2 2 2 2 2 1 1 2 3 3 3 3 2 2 2 2 1 1 1 1 1 1 1 1 1 1 1 1 1 1
2 2 2 2 2 2 3 3 2 2 2 2 2 2 2 2 2 2 2 1 2 2 3 3 3 3 2 2 2 2 1 1 1 1 1 1 1 1 1 1 1 1 1
2 2 2 2 2 2 2 2 2 2 2 2 2 2 2 2 2 2 2 2 2 2 3 3 3 3 3 2 2 2 2 1 1 1 1 1 1 1 1 1 1 1 1
2 2 2 2 2 1 1 1 1 1 1 1 1 1 1 2 2 2 2 2 1 2 2 2 3 3 3 2 2 2 2 2 1 1 1 1 1 1 1 1 1 1 1
1 1 1 1 1 1 1 1 1 1 1 1 1 1 1 1 2 2 2 1 1 1 2 2 2 2 2 2 2 2 2 2 1 1 1 1 1 1 1 1 1 1 1
1 1 1 1 1 1 1 1 1 1 1 1 0 0 1 1 2 2 1 1 1 1 1 2 2 2 1 1 1 2 2 2 1 1 1 1 1 1 1 1 1 1 1
1 0 0 0 1 1 1 1 1 1 1 0 0 0 1 1 1 1 1 1 1 1 1 1 2 1 1 1 1 1 1 1 1 1 1 1 1 1 1 1 1 1 1
0 0 0 0 0 0 0 1 1 1 0 0 0 0 0 0 0 0 1 1 1 1 1 1 1 1 1 1 1 1 1 2 1 1 1 1 1 1 1 1 1 1 1
0 0 0 0 0 0 0 0 0 0 0 0 0 0 0 0 0 0 0 0 1 1 1 1 1 1 1 1 1 1 1 1 1 1 1 1 1 1 1 1 1 1 1
0 0 0 0 0 0 0 0 0 0 0 0 0 0 0 0 0 0 0 0 0 1 1 1 1 1 1 1 1 1 1 1 1 1 1 1 1 1 1 1 1 1 1
0 0 0 0 0 0 0 0 0 0 0 0 0 0 0 0 0 0 0 0 0 0 0 1 1 1 1 2 1 1 1 1 1 1 1 1 1 1 1 1 1 1 1
0 0 0 0 0 0 0 0 0 0 0 0 0 0 0 0 0 0 0 0 0 0 0 1 1 1 1 2 1 1 1 1 1 1 1 1 1 1 1 1 1 1 1
0 0 0 0 0 0 0 0 0 0 0 0 0 0 0 0 0 0 0 0 0 0 0 1 1 1 1 1 1 1 1 1 1 1 1 1 1 1 1 1 1 1 1
0 0 0 0 0 0 0 0 0 0 0 0 0 0 0 0 0 0 0 0 0 0 0 0 0 1 1 1 1 1 1 1 0 0 0 0 1 1 1 1 1 1 1
0 0 0 0 0 0 0 0 0 0 0 0 0 0 0 0 0 0 0 0 0 0 0 0 0 0 1 1 1 1 1 0 0 0 0 0 0 0 0 0 0 0 0
0 0 0 0 0 0 0 0 0 0 0 0 0 0 0 0 0 0 0 0 0 1 1 1 0 0 0 0 0 0 0 0 0 0 0 0 0 0 0 0 0 0 0
0 0 0 0 0 0 0 0 0 0 0 0 0 0 0 0 0 0 0 0 0 1 1 1 1 1 1 0 0 0 0 0 0 0 0 0 0 0 0 0 0 0 0
0 0 0 0 0 0 0 0 0 0 0 0 0 0 0 0 0 0 0 0 0 0 1 1 1 1 1 1 0 0 0 0 0 0 0 0 0 0 0 0 0 0 0
0 0 0 0 0 0 0 0 0 0 0 0 0 0 0 0 0 0 0 0 0 0 0 1 1 1 1 1 1 0 0 0 0 0 0 0 0 0 0 0 0 0 0
0 0 0 0 0 0 0 0 0 0 0 0 0 0 0 0 0 0 0 0 0 0 0 1 1 1 1 1 1 1 0 0 0 0 0 0 0 0 0 0 0 0 0
0 0 0 0 0 0 0 0 0 0 0 0 0 0 0 0 0 0 0 0 0 0 0 0 1 1 1 1 1 1 0 0 0 0 0 0 0 0 0 0 0 0 0
0 0 0 0 0 0 0 0 0 0 0 0 0 0 0 0 0 0 0 0 0 0 0 0 1 1 1 1 1 1 0 0 0 0 0 0 0 0 0 0 0 0 0
0 0 0 0 0 0 0 0 0 0 0 0 0 0 0 0 0 0 0 0 0 0 0 0 0 1 1 1 1 0 0 0 0 0 0 0 0 0 0 0 0 0 0
0 0 0 0 0 0 0 0 0 0 0 0 0 0 0 0 0 0 0 0 0 0 0 0 0 0 1 1 1 0 0 0 0 0 0 0 0 0 0 0 0 0 0
0 0 0 0 0 0 0 0 0 0 0 0 0 0 0 0 0 0 0 0 0 0 0 0 0 0 0 0 1 0 0 0 0 0 0 0 0 0 0 0 0 0 0
0 0 0 0 0 0 0 0 0 0 0 0 0 0 0 0 0 0 0 0 0 0 0 0 0 0 0 0 0 0 0 0 0 0 0 0 0 0 0 0 0 0 0
Wind_Speed
2 2 2 2 3 3 3 4 5 7 8 9 10 11 10 11 10 8 6 14 17 18 21 23 23 23 22 21 21 21 20 20 18 17 17 16 16 16 16 15 14 14 13
1 1 2 2 2 2 3 4 5 6 7 7 10 11 11 10 10 10 8 9 16 18 20 21 22 22 22 21 21 21 21 20 19 18 18 17 17 16 16 16 15 14 14
1 1 1 2 2 2 3 3 4 4 5 6 9 10 9 10 9 10 9 7 8 16 20 21 21 21 22 23 22 21 21 20 20 20 19 18 17 17 16 16 16 15 14
2 1 1 2 3 2 2 3 3 3 4 5 5 6 7 7 9 9 8 8 7 8 14 20 21 21 22 23 23 23 21 20 20 20 20 19 19 18 17 17 16 16 15
1 1 1 2 2 2 2 3 3 3 4 4 5 6 6 7 7 9 10 10 9 8 8 13 21 22 23 24 24 23 22 21 21 21 21 21 21 20 18 18 17 17 16
1 1 1 2 2 2 2 3 3 3 3 4 6 6 5 5 5 7 9 9 9 11 10 10 10 15 23 23 22 22 22 22 22 22 22 22 21 20 19 18 17 17 17
1 1 1 2 1 1 3 3 3 4 3 2 2 3 4 5 6 6 7 7 9 10 10 10 8 8 9 19 21 21 22 23 23 22 22 22 21 20 19 19 18 18 18
3 3 2 2 2 2 3 3 2 2 3 2 2 2 2 3 4 7 7 8 9 8 9 12 10 10 8 6 12 21 22 22 22 23 22 22 21 19 19 19 19 18 18
5 5 4 4 3 2 2 3 2 2 3 2 2 2 1 2 3 3 6 7 8 7 8 9 11 11 11 8 8 15 21 21 22 23 22 21 20 19 19 20 20 20 19
6 5 5 4 4 3 3 3 2 2 2 3 2 2 3 2 2 3 3 4 7 8 8 9 10 10 10 8 10 14 19 20 21 21 21 21 20 20 20 20 20 20 19
5 5 4 3 3 3 4 3 3 2 2 2 2 2 2 2 3 3 4 3 3 5 6 7 7 7 9 9 8 12 17 19 19 20 19 19 20 20 20 20 21 21 20
4 5 4 3 3 3 4 4 4 4 3 3 3 2 2 2 2 2 3 3 3 3 4 5 6 7 7 8 12 16 17 17 18 18 18 18 18 19 20 20 21 21 21
3 5 5 4 3 3 4 4 4 4 4 4 4 3 3 3 2 2 3 3 3 3 2 3 4 5 7 7 8 15 15 16 16 17 17 17 17 18 18 19 19 20 20
4 5 4 4 5 5 5 4 4 5 4 5 5 5 3 3 3 2 2 2 3 3 2 3 2 4 5 6 8 13 9 14 14 15 15 15 15 16 16 16 17 17 17
5 5 5 5 5 5 5 5 4 5 5 5 5 5 4 4 3 3 3 2 2 3 3 3 1 2 3 4 7 6 5 10 12 12 13 13 13 14 14 15 15 15 15
5 6 6 6 6 6 6 5 5 5 6 6 5 5 5 4 3 3 3 3 3 3 3 3 2 2 3 4 6 5 5 9 8 9 10 11 11 12 12 13 13 13 14
6 6 7 7 7 7 6 5 6 6 6 7 6 6 7 5 4 3 3 3 3 3 4 3 1 1 3 6 5 5 5 5 4 7 8 8 9 10 10 11 11 11 11
7 7 7 7 8 8 7 6 7 7 7 7 7 7 8 6 5 4 3 4 4 4 3 4 2 2 3 6 7 7 5 5 4 7 8 8 8 8 9 9 10 10 10
7 7 7 7 8 8 8 8 8 8 8 8 8 8 8 7 7 5 5 5 4 4 3 3 3 2 3 5 7 6 6 5 5 6 8 9 8 9 9 9 9 10 10
7 7 7 8 8 9 9 9 9 9 9 9 8 8 8 8 8 7 6 6 5 4 4 4 3 3 5 5 6 6 5 3 4 5 6 7 10 11 11 10 10 10 11
8 7 7 8 8 8 8 9 9 9 8 9 8 8 9 11 13 10 7 6 6 5 4 4 4 3 5 7 7 5 6 5 3 3 5 4 5 5 6 8 10 11 11
7 7 8 8 9 9 11 14 11 8 7 8 8 8 8 10 12 14 14 12 10 7 6 5 4 5 6 7 6 8 8 7 5 3 4 4 4 5 4 4 8 11 12
7 8 8 8 9 11 15 16 17 10 8 8 9 8 9 9 9 7 10 13 12 13 11 7 6 7 7 8 9 10 9 7 4 7 6 4 3 4 3 4 9 10 11
7 8 8 9 9 11 14 15 16 11 8 9 9 9 9 8 8 8 7 6 7 8 9 7 6 6 6 7 10 10 10 7 6 5 4 5 3 3 4 4 7 9 10
8 8 8 9 9 10 13 14 13 6 7 9 9 9 9 9 12 13 8 7 6 6 7 9 8 7 8 10 9 9 10 10 7 5 3 5 4 4 3 3 3 8 9
8 8 8 8 8 9 11 13 11 5 6 7 6 7 12 12 13 13 9 8 8 6 5 6 6 7 7 10 14 12 12 11 9 6 4 5 5 5 4 2 2 2 4
Wind_Direction
235 243 247 248 246 240 236 235 233 228 225 228 228 226 224 223 226 226 234 236 227 217 211 205 203 201 200 199 198 197 198 198 196 193 192 191 190 189 188 187 186 184 182
231 267 281 279 270 254 244 241 242 241 235 230 233 232 230 225 226 225 227 236 230 219 210 207 207 206 205 204 203 201 200 201 198 196 196 196 195 194 193 191 191 189 187
59 353 322 307 296 290 278 265 253 247 245 238 237 236 235 228 223 224 227 225 229 224 213 209 210 209 210 209 208 205 204 203 201 199 198 199 199 198 197 195 194 193 191
56 32 349 317 309 308 296 280 266 256 251 242 239 241 241 232 225 225 227 226 220 220 217 213 213 213 214 213 212 210 207 205 203 201 200 201 201 201 200 198 197 196 195
61 59 343 314 318 318 304 295 290 264 262 255 247 241 236 233 227 230 230 228 222 218 213 216 218 218 218 218 216 213 210 207 205 203 203 203 204 203 202 202 201 199 198
7 32 312 322 330 320 307 301 289 276 264 263 266 261 241 232 226 226 228 230 227 222 216 215 217 223 222 221 219 215 213 210 207 206 206 206 206 204 202 203 204 203 202
282 263 273 292 306 291 285 289 286 283 276 264 266 274 260 238 231 229 225 225 226 224 218 213 211 214 221 222 221 217 215 213 210 209 208 208 207 205 203 203 204 205 204
296 284 258 258 261 269 295 299 293 288 282 274 251 268 284 279 239 227 219 220 223 219 220 219 212 211 213 211 217 217 217 215 213 212 209 208 208 206 204 204 205 206 206
300 293 276 257 248 230 250 268 274 275 284 281 247 240 244 266 293 260 226 223 216 212 217 217 213 211 209 208 211 215 215 214 215 214 211 208 207 206 206 206 206 207 207
304 297 285 266 253 240 239 254 246 244 269 287 284 254 243 245 264 298 286 237 222 217 214 216 216 210 207 206 209 208 211 212 213 215 213 209 207 205 206 207 208 209 209
312 312 301 285 267 255 250 252 264 257 238 253 267 269 264 255 235 243 278 287 259 230 214 210 208 207 204 203 204 209 208 209 210 212 213 210 208 206 206 208 212 212 211
311 317 310 298 284 274 264 256 254 258 251 252 260 257 252 250 250 245 255 276 276 263 231 214 207 204 202 200 205 205 204 206 207 208 209 209 208 206 207 210 215 216 214
297 301 312 301 290 278 276 269 261 259 255 253 253 254 254 254 250 249 255 268 275 280 266 234 213 198 200 194 201 200 200 200 202 204 206 207 206 206 206 209 213 215 215
265 275 286 288 286 281 279 268 260 257 254 251 257 257 254 257 253 246 238 250 278 280 266 252 226 196 188 182 189 186 192 194 196 198 200 202 204 203 202 204 208 211 213
272 279 282 284 285 283 279 272 259 259 257 251 252 256 253 252 244 243 237 219 233 264 265 250 231 195 170 158 165 161 156 177 183 191 195 198 200 201 201 202 204 207 209
272 280 280 279 278 277 274 272 267 260 256 254 247 248 252 250 248 242 236 225 216 229 254 256 232 189 160 142 134 132 135 145 160 174 182 187 192 196 198 200 202 204 205
267 268 269 272 273 274 271 267 264 265 258 259 256 247 248 244 243 243 238 231 222 214 243 267 244 166 134 138 127 116 113 113 124 146 164 173 180 184 186 190 192 191 192
262 259 260 262 265 268 264 263 265 269 258 256 255 250 250 249 241 233 229 232 228 218 218 252 240 174 142 150 138 128 120 111 109 120 134 143 156 165 170 175 176 175 175
263 263 259 258 260 261 260 258 255 258 255 251 247 243 244 241 244 235 226 227 225 228 216 225 232 187 148 147 133 119 116 111 107 109 109 114 124 132 140 148 154 156 156
262 262 258 255 255 256 256 256 255 253 254 253 246 240 237 231 234 232 227 223 218 217 216 219 220 189 162 151 142 139 136 123 115 108 97 100 107 107 114 123 133 137 139
268 260 259 259 256 255 256 252 248 254 251 253 251 242 238 237 236 232 225 214 208 210 209 211 211 193 174 165 161 151 148 135 100 111 113 101 100 95 96 109 119 126 127
271 268 263 261 259 264 265 260 252 248 245 245 250 247 245 248 248 243 235 224 207 202 204 207 207 201 192 175 159 155 152 152 147 148 123 101 92 90 74 81 112 119 121
275 274 269 264 261 261 261 260 258 249 239 240 241 241 249 247 239 234 238 234 224 216 205 201 208 202 190 177 165 164 168 158 143 152 130 108 88 81 63 83 109 116 121
277 275 274 269 266 269 265 260 259 252 241 239 237 233 231 236 234 222 222 224 220 218 212 208 211 210 197 182 175 166 156 129 107 133 123 113 103 82 63 61 101 116 121
282 277 273 272 270 273 271 266 261 246 240 241 238 234 226 226 229 220 212 214 219 226 224 215 207 210 203 185 167 150 152 152 148 153 127 116 123 102 73 50 80 114 122
280 281 279 274 269 274 277 273 262 240 239 242 240 236 231 225 225 216 206 203 212 216 202 201 204 203 201 186 176 173 167 165 154 151 150 124 134 130 112 75 57 85 105